| time (UTC) | temp F | wind direction | speed MPH | gust MPH | rain 1hr in | rain 24hr in | rain mn in | humidity % | barometer mb |
| 20260505231615 | 52 | 56 | 0.0 | 0.0 | 0.00 | 0.43 | 0.43 | 85 | 1011.9 |
| 20260505230048 | 52 | 56 | 0.0 | 1.0 | 0.00 | 0.43 | 0.43 | 85 | 1012.1 |
| 20260505224624 | 52 | 55 | 0.0 | 2.0 | 0.00 | 0.43 | 0.43 | 85 | 1012.0 |
| 20260505223039 | 52 | 55 | 1.0 | 2.0 | 0.00 | 0.43 | 0.43 | 86 | 1011.8 |
| 20260505221623 | 52 | 56 | 0.0 | 1.0 | 0.00 | 0.43 | 0.43 | 86 | 1011.9 |
| 20260505220039 | 51 | 63 | 0.0 | 1.0 | 0.00 | 0.43 | 0.43 | 86 | 1011.9 |
| 20260505214630 | 51 | 64 | 0.0 | 1.0 | 0.00 | 0.43 | 0.43 | 86 | 1012.0 |
| 20260505213055 | 51 | 65 | 0.0 | 3.0 | 0.00 | 0.43 | 0.43 | 86 | 1012.0 |
| 20260505211524 | 51 | 50 | 1.0 | 3.0 | 0.00 | 0.43 | 0.43 | 88 | 1011.9 |
| 20260505210053 | 50 | 50 | 0.0 | 3.0 | 0.00 | 0.43 | 0.43 | 88 | 1012.2 |
| 20260505204509 | 50 | 49 | 1.0 | 4.0 | 0.00 | 0.43 | 0.43 | 89 | 1012.0 |
| 20260505203103 | 49 | 36 | 0.0 | 2.0 | 0.00 | 0.43 | 0.43 | 89 | 1012.2 |
| 20260505201517 | 49 | 37 | 0.0 | 5.0 | 0.00 | 0.43 | 0.43 | 88 | 1012.2 |
| 20260505200111 | 49 | 45 | 1.0 | 5.0 | 0.00 | 0.43 | 0.43 | 88 | 1012.3 |
| 20260505194534 | 48 | 56 | 1.0 | 5.0 | 0.00 | 0.43 | 0.43 | 88 | 1012.4 |
| 20260505193125 | 48 | 57 | 3.0 | 6.0 | 0.00 | 0.43 | 0.43 | 89 | 1012.0 |
| 20260505191534 | 48 | 11 | 2.0 | 5.0 | 0.00 | 0.43 | 0.43 | 90 | 1012.0 |
| 20260505190121 | 48 | 11 | 1.0 | 4.0 | 0.00 | 0.43 | 0.43 | 91 | 1012.0 |
| 20260505184536 | 48 | 11 | 3.0 | 4.0 | 0.01 | 0.43 | 0.43 | 91 | 1012.1 |
| 20260505183113 | 48 | 107 | 1.0 | 6.0 | 0.01 | 0.43 | 0.43 | 92 | 1012.3 |
| 20260505181525 | 47 | 84 | 3.0 | 9.0 | 0.01 | 0.43 | 0.43 | 92 | 1012.7 |
| 20260505180113 | 48 | 75 | 2.0 | 4.0 | 0.01 | 0.43 | 0.43 | 92 | 1012.7 |
| 20260505174533 | 47 | 74 | 3.0 | 5.0 | 0.01 | 0.42 | 0.42 | 92 | 1012.8 |
| 20260505173123 | 47 | 100 | 1.0 | 7.0 | 0.01 | 0.42 | 0.42 | 92 | 1012.8 |
| 20260505171539 | 47 | 76 | 1.0 | 5.0 | 0.01 | 0.42 | 0.42 | 92 | 1012.8 |
| 20260505170126 | 47 | 11 | 3.0 | 6.0 | 0.02 | 0.42 | 0.42 | 92 | 1012.7 |
| 20260505164535 | 47 | 93 | 3.0 | 10.0 | 0.02 | 0.41 | 0.41 | 92 | 1012.6 |
| 20260505163128 | 47 | 11 | 3.0 | 9.0 | 0.05 | 0.41 | 0.41 | 92 | 1012.5 |
| 20260505161551 | 47 | 11 | 5.0 | 9.0 | 0.06 | 0.41 | 0.41 | 92 | 1012.5 |
| 20260505153002 | 47 | 55 | 2.0 | 6.0 | 0.01 | 0.36 | 0.36 | 91 | 1012.8 |
| 20260505151554 | 47 | 77 | 2.0 | 11.0 | 0.00 | 0.35 | 0.35 | 91 | 1012.5 |
| 20260505124557 | 47 | 11 | 2.0 | 9.0 | 0.02 | 0.30 | 0.30 | 88 | 1011.1 |
| 20260505123010 | 48 | 11 | 2.0 | 8.0 | 0.02 | 0.28 | 0.28 | 89 | 1009.0 |
| 20260505121630 | 48 | 11 | 2.0 | 7.0 | 0.03 | 0.28 | 0.28 | 88 | 1009.1 |
| 20260505120015 | 48 | 11 | 0.0 | 6.0 | 0.04 | 0.28 | 0.28 | 87 | 1009.6 |
| 20260505114557 | 48 | 11 | 1.0 | 5.0 | 0.03 | 0.28 | 0.28 | 86 | 1009.0 |
| 20260505113004 | 48 | 11 | 2.0 | 7.0 | 0.02 | 0.27 | 0.27 | 86 | 1008.8 |
| 20260505111550 | 49 | 11 | 4.0 | 9.0 | 0.01 | 0.26 | 0.26 | 85 | 1008.5 |
| 20260505101547 | 49 | 87 | 2.0 | 6.0 | 0.00 | 0.25 | 0.25 | 88 | 1008.5 |
| 20260505100009 | 48 | 62 | 4.0 | 9.0 | 0.00 | 0.25 | 0.25 | 89 | 1008.5 |
| 20260505094549 | 48 | 71 | 3.0 | 4.0 | 0.00 | 0.25 | 0.25 | 88 | 1008.9 |
| 20260505093013 | 48 | 11 | 2.0 | 5.0 | 0.00 | 0.25 | 0.25 | 87 | 1008.5 |
| 20260505091614 | 48 | 11 | 3.0 | 11.0 | 0.01 | 0.25 | 0.25 | 87 | 1008.3 |
| 20260505090000 | 48 | 71 | 2.0 | 11.0 | 0.01 | 0.25 | 0.25 | 87 | 1007.8 |
| 20260505084551 | 48 | 82 | 5.0 | 14.0 | 0.05 | 0.25 | 0.25 | 87 | 1006.7 |
| 20260505083002 | 48 | 11 | 5.0 | 20.0 | 0.12 | 0.25 | 0.25 | 88 | 1006.5 |
| 20260505081601 | 48 | 11 | 4.0 | 13.0 | 0.15 | 0.24 | 0.24 | 88 | 1006.5 |
| 20260505080013 | 49 | 36 | 5.0 | 12.0 | 0.16 | 0.24 | 0.24 | 86 | 1006.9 |
| 20260505074606 | 50 | 11 | 3.0 | 11.0 | 0.12 | 0.20 | 0.20 | 83 | 1007.2 |
| 20260505073025 | 51 | 94 | 3.0 | 10.0 | 0.06 | 0.13 | 0.13 | 79 | 1008.2 |
| 20260505071614 | 53 | 30 | 2.0 | 12.0 | 0.03 | 0.09 | 0.09 | 73 | 1008.7 |
| 20260505070031 | 54 | 359 | 1.0 | 8.0 | 0.02 | 0.08 | 0.08 | 71 | 1008.6 |
| 20260505064620 | 54 | 75 | 4.0 | 8.0 | 0.02 | 0.08 | 0.08 | 71 | 1007.2 |
| 20260505063049 | 55 | 55 | 4.0 | 17.0 | 0.02 | 0.07 | 0.07 | 71 | 1006.3 |
| 20260505061502 | 57 | 26 | 6.0 | 13.0 | 0.06 | 0.06 | 0.06 | 73 | 1006.1 |
| 20260505060046 | 58 | 11 | 0.0 | 12.0 | 0.06 | 0.06 | 0.06 | 81 | 1005.8 |
| 20260505054511 | 59 | 11 | 2.0 | 5.0 | 0.06 | 0.06 | 0.06 | 81 | 1004.4 |
| 20260505053058 | 61 | 11 | 3.0 | 6.0 | 0.05 | 0.05 | 0.05 | 76 | 1004.4 |
| 20260505051508 | 63 | 11 | 4.0 | 10.0 | 0.00 | 0.00 | 0.00 | 67 | 1004.5 |
| 20260505041608 | 70 | 35 | 1.0 | 6.0 | 0.00 | 0.00 | 0.00 | 73 | 1003.1 |
| 20260505040012 | 71 | 11 | 3.0 | 10.0 | 0.00 | 0.00 | 0.00 | 72 | 1003.0 |
| 20260505034603 | 71 | 11 | 1.0 | 8.0 | 0.00 | 0.00 | 0.00 | 71 | 1002.7 |
| 20260505033014 | 71 | 11 | 2.0 | 10.0 | 0.00 | 0.00 | 0.00 | 71 | 1002.7 |
| 20260505031608 | 71 | 11 | 2.0 | 9.0 | 0.00 | 0.00 | 0.00 | 69 | 1002.6 |
| 20260505030028 | 71 | 182 | 1.0 | 4.0 | 0.00 | 0.00 | 0.00 | 67 | 1002.5 |
| 20260505024619 | 72 | 11 | 1.0 | 5.0 | 0.00 | 0.00 | 0.00 | 66 | 1002.3 |
| 20260505023024 | 72 | 11 | 0.0 | 5.0 | 0.00 | 0.00 | 0.00 | 64 | 1002.0 |
| 20260505021623 | 72 | 11 | 1.0 | 5.0 | 0.00 | 0.00 | 0.00 | 63 | 1001.8 |
| 20260505020050 | 73 | 11 | 1.0 | 5.0 | 0.00 | 0.00 | 0.00 | 61 | 1001.7 |
| 20260505014628 | 73 | 203 | 1.0 | 3.0 | 0.00 | 0.00 | 0.00 | 60 | 1001.6 |
| 20260505013041 | 74 | 11 | 0.0 | 3.0 | 0.00 | 0.00 | 0.00 | 59 | 1001.3 |
| 20260505011628 | 75 | 11 | 0.0 | 4.0 | 0.00 | 0.00 | 0.00 | 57 | 1001.1 |
| 20260505004626 | 77 | 215 | 0.0 | 1.0 | 0.00 | 0.00 | 0.00 | 55 | 1000.8 |
| 20260505003046 | 78 | 215 | 0.0 | 2.0 | 0.00 | 0.00 | 0.00 | 55 | 1000.6 |
| 20260505001629 | 79 | 215 | 0.0 | 3.0 | 0.00 | 0.00 | 0.00 | 55 | 1000.6 |
| 20260505000051 | 79 | 215 | 0.0 | 3.0 | 0.00 | 0.00 | 0.00 | 52 | 1000.6 |
| 20260504234633 | 79 | 226 | 0.0 | 3.0 | 0.00 | 0.00 | 0.00 | 50 | 1000.7 |
| 20260504233053 | 80 | 214 | 1.0 | 7.0 | 0.00 | 0.00 | 0.00 | 49 | 1000.7 |